Location: ??????
(38.5153°N, 23.0340°E)
Time: 14:50:31
(UTC+00:00)

Cosmos 2297 Rocket - Pass Details

Date: 13 December 2025
Orbit: 837 x 844 km, 71.0° (Epoch: 17 January)

Event Time Altitude Azimuth Distance (km) Brightness Sun altitude
Rises 15:34:11 0° 334° (NNW) 3,408 5.4 -5.5°
Reaches altitude 10° 15:36:39 10° 332° (NNW) 2,470 4.7 -5.9°
Maximum altitude 15:42:16 69° 251° (WSW) 901 2.7 -6.9°
Drops below altitude 10° 15:47:52 10° 169° (SSE) 2,453 4.8 -7.9°
Sets 15:50:18 0° 166° (SSE) 3,383 5.5 -8.4°
